Time,TemperatureF,DewpointF,PressureIn,WindDirection,WindDirectionDegrees,WindSpeedMPH,WindSpeedGustMPH,Humidity,HourlyPrecipIn,Conditions,Clouds,dailyrainin,SoftwareType,DateUTC
2013-03-11 00:02:00,44.0,39.0,30.26,East,84,2.0,2.0,81,0.00,,,0.00,,2013-03-11 04:02:00,
2013-03-11 00:12:00,44.0,39.0,30.26,East,84,2.0,2.0,81,0.00,,,0.00,,2013-03-11 04:12:00,
2013-03-11 00:22:00,43.0,38.0,30.26,East,84,4.0,4.0,83,0.00,,,0.00,,2013-03-11 04:22:00,
2013-03-11 00:32:00,43.0,39.0,30.25,East,100,4.0,4.0,85,0.00,,,0.00,,2013-03-11 04:32:00,
2013-03-11 00:43:00,43.0,39.0,30.25,East,100,4.0,4.0,85,0.00,,,0.00,,2013-03-11 04:43:00,
2013-03-11 00:53:00,43.0,39.0,30.25,NNE,24,4.0,4.0,86,0.00,,,0.00,,2013-03-11 04:53:00,
2013-03-11 01:03:00,42.0,39.0,30.26,NE,52,3.0,3.0,88,0.00,,,0.00,,2013-03-11 05:03:00,
2013-03-11 01:12:00,42.0,39.0,30.26,NE,52,3.0,3.0,88,0.00,,,0.00,,2013-03-11 05:12:00,
2013-03-11 01:22:00,42.0,39.0,30.26,ENE,58,1.0,1.0,89,0.00,,,0.00,,2013-03-11 05:22:00,
2013-03-11 01:32:00,42.0,39.0,30.25,NNW,340,4.0,4.0,90,0.00,,,0.00,,2013-03-11 05:32:00,
2013-03-11 01:43:00,42.0,39.0,30.25,NNW,340,4.0,4.0,90,0.00,,,0.00,,2013-03-11 05:43:00,
2013-03-11 01:52:00,42.0,39.0,30.25,NNW,333,1.0,1.0,90,0.00,,,0.00,,2013-03-11 05:52:00,
2013-03-11 02:02:00,42.0,40.0,30.24,WNW,290,1.0,1.0,91,0.00,,,0.00,,2013-03-11 06:02:00,
2013-03-11 02:12:00,42.0,40.0,30.24,WNW,290,1.0,1.0,91,0.00,,,0.00,,2013-03-11 06:12:00,
2013-03-11 02:22:00,42.0,40.0,30.24,East,80,3.0,3.0,91,0.00,,,0.00,,2013-03-11 06:22:00,
2013-03-11 02:32:00,42.0,40.0,30.24,NNW,329,2.0,2.0,91,0.00,,,0.00,,2013-03-11 06:32:00,
2013-03-11 02:42:00,42.0,40.0,30.24,NNW,329,2.0,2.0,91,0.00,,,0.00,,2013-03-11 06:42:00,
2013-03-11 02:53:00,41.0,39.0,30.23,ENE,76,1.0,1.0,92,0.00,,,0.00,,2013-03-11 06:53:00,
2013-03-11 03:03:00,41.0,39.0,30.24,SW,234,1.0,1.0,92,0.00,,,0.00,,2013-03-11 07:03:00,
2013-03-11 03:12:00,41.0,39.0,30.24,SW,234,1.0,1.0,92,0.00,,,0.00,,2013-03-11 07:12:00,
2013-03-11 03:22:00,41.0,39.0,30.23,WSW,254,1.0,1.0,92,0.00,,,0.00,,2013-03-11 07:22:00,
2013-03-11 03:32:00,41.0,39.0,30.23,WSW,252,1.0,1.0,93,0.00,,,0.00,,2013-03-11 07:32:00,
2013-03-11 03:42:00,41.0,39.0,30.23,WSW,252,1.0,1.0,93,0.00,,,0.00,,2013-03-11 07:42:00,
2013-03-11 03:52:00,41.0,39.0,30.23,WSW,253,0.0,0.0,93,0.00,,,0.00,,2013-03-11 07:52:00,
2013-03-11 04:02:00,41.0,39.0,30.22,WSW,253,0.0,0.0,93,0.00,,,0.00,,2013-03-11 08:02:00,
2013-03-11 04:12:00,41.0,39.0,30.22,WSW,253,0.0,0.0,93,0.00,,,0.00,,2013-03-11 08:12:00,
2013-03-11 04:22:00,41.0,39.0,30.21,WSW,252,1.0,1.0,94,0.00,,,0.00,,2013-03-11 08:22:00,
2013-03-11 04:32:00,42.0,40.0,30.20,ESE,116,1.0,1.0,94,0.00,,,0.00,,2013-03-11 08:32:00,
2013-03-11 04:42:00,42.0,40.0,30.20,ESE,116,1.0,1.0,94,0.00,,,0.00,,2013-03-11 08:42:00,
2013-03-11 04:52:00,42.0,40.0,30.20,SSE,147,0.0,0.0,94,0.00,,,0.00,,2013-03-11 08:52:00,
2013-03-11 05:02:00,42.0,40.0,30.20,WSW,238,2.0,2.0,94,0.00,,,0.00,,2013-03-11 09:02:00,
2013-03-11 05:12:00,42.0,40.0,30.20,WSW,238,2.0,2.0,94,0.00,,,0.00,,2013-03-11 09:12:00,
2013-03-11 05:23:00,42.0,40.0,30.20,WSW,248,1.0,1.0,94,0.00,,,0.00,,2013-03-11 09:23:00,
2013-03-11 05:32:00,42.0,40.0,30.20,SSW,202,0.0,0.0,94,0.00,,,0.00,,2013-03-11 09:32:00,
2013-03-11 05:42:00,42.0,40.0,30.20,SSW,202,0.0,0.0,94,0.00,,,0.00,,2013-03-11 09:42:00,
2013-03-11 05:52:00,42.0,40.0,30.20,South,184,0.0,0.0,94,0.00,,,0.00,,2013-03-11 09:52:00,
2013-03-11 06:02:00,42.0,40.0,30.21,South,182,0.0,0.0,94,0.00,,,0.00,,2013-03-11 10:02:00,
2013-03-11 06:12:00,42.0,40.0,30.21,South,182,0.0,0.0,94,0.00,,,0.00,,2013-03-11 10:12:00,
2013-03-11 06:22:00,42.0,40.0,30.20,South,173,0.0,0.0,94,0.00,,,0.00,,2013-03-11 10:22:00,
2013-03-11 06:32:00,42.0,40.0,30.19,ESE,109,0.0,0.0,94,0.00,,,0.00,,2013-03-11 10:32:00,
2013-03-11 06:42:00,42.0,40.0,30.19,ESE,109,0.0,0.0,94,0.00,,,0.00,,2013-03-11 10:42:00,
2013-03-11 06:52:00,42.0,40.0,30.19,SE,133,0.0,0.0,94,0.00,,,0.00,,2013-03-11 10:52:00,
2013-03-11 07:02:00,42.0,40.0,30.20,SE,136,1.0,1.0,94,0.00,,,0.00,,2013-03-11 11:02:00,
2013-03-11 07:12:00,42.0,40.0,30.20,SE,136,1.0,1.0,94,0.00,,,0.00,,2013-03-11 11:12:00,
2013-03-11 07:22:00,42.0,41.0,30.19,SE,136,0.0,0.0,95,0.00,,,0.00,,2013-03-11 11:22:00,
2013-03-11 07:33:00,42.0,41.0,30.20,SE,134,0.0,0.0,95,0.00,,,0.00,,2013-03-11 11:33:00,
2013-03-11 07:42:00,42.0,41.0,30.20,SE,134,0.0,0.0,95,0.00,,,0.00,,2013-03-11 11:42:00,
2013-03-11 07:53:00,42.0,41.0,30.20,SE,138,0.0,0.0,95,0.00,,,0.00,,2013-03-11 11:53:00,
2013-03-11 08:02:00,42.0,41.0,30.21,SE,139,2.0,2.0,95,0.00,,,0.00,,2013-03-11 12:02:00,
2013-03-11 08:12:00,42.0,41.0,30.21,SE,139,2.0,2.0,95,0.00,,,0.00,,2013-03-11 12:12:00,
2013-03-11 08:22:00,43.0,42.0,30.19,SE,132,0.0,0.0,95,0.00,,,0.00,,2013-03-11 12:22:00,
2013-03-11 08:32:00,43.0,42.0,30.19,SSE,148,0.0,0.0,95,0.00,,,0.00,,2013-03-11 12:32:00,
2013-03-11 08:43:00,43.0,42.0,30.19,SSE,148,0.0,0.0,95,0.00,,,0.00,,2013-03-11 12:43:00,
2013-03-11 08:53:00,43.0,42.0,30.18,East,96,2.0,2.0,95,0.00,,,0.00,,2013-03-11 12:53:00,
2013-03-11 09:02:00,43.0,42.0,30.18,East,99,1.0,1.0,96,0.00,,,0.00,,2013-03-11 13:02:00,
2013-03-11 09:12:00,43.0,42.0,30.18,East,99,1.0,1.0,96,0.00,,,0.00,,2013-03-11 13:12:00,
2013-03-11 09:22:00,43.0,42.0,30.20,SW,232,0.0,0.0,96,0.00,,,0.00,,2013-03-11 13:22:00,
2013-03-11 09:32:00,44.0,43.0,30.20,WSW,238,1.0,1.0,96,0.00,,,0.00,,2013-03-11 13:32:00,
2013-03-11 09:42:00,44.0,43.0,30.20,WSW,238,1.0,1.0,96,0.00,,,0.00,,2013-03-11 13:42:00,
2013-03-11 09:53:00,44.0,43.0,30.20,WSW,253,1.0,1.0,96,0.00,,,0.00,,2013-03-11 13:53:00,
2013-03-11 10:02:00,44.0,43.0,30.20,WSW,250,3.0,3.0,96,0.00,,,0.00,,2013-03-11 14:02:00,
2013-03-11 10:12:00,44.0,43.0,30.20,WSW,250,3.0,3.0,96,0.00,,,0.00,,2013-03-11 14:12:00,
2013-03-11 10:22:00,44.0,43.0,30.19,WSW,248,4.0,4.0,96,0.00,,,0.00,,2013-03-11 14:22:00,
2013-03-11 10:33:00,45.0,44.0,30.19,West,268,5.0,5.0,96,0.00,,,0.00,,2013-03-11 14:33:00,
2013-03-11 10:42:00,45.0,44.0,30.19,West,268,5.0,5.0,96,0.00,,,0.00,,2013-03-11 14:42:00,
2013-03-11 10:53:00,45.0,44.0,30.18,NW,307,2.0,2.0,96,0.00,,,0.00,,2013-03-11 14:53:00,
2013-03-11 11:02:00,45.0,44.0,30.18,WSW,250,5.0,5.0,96,0.00,,,0.00,,2013-03-11 15:02:00,
2013-03-11 11:13:00,45.0,44.0,30.18,WSW,250,5.0,5.0,96,0.00,,,0.00,,2013-03-11 15:13:00,
2013-03-11 11:22:00,45.0,44.0,30.16,WSW,256,2.0,2.0,96,0.00,,,0.00,,2013-03-11 15:22:00,
2013-03-11 11:32:00,46.0,45.0,30.16,West,259,4.0,4.0,96,0.00,,,0.00,,2013-03-11 15:32:00,
2013-03-11 11:42:00,46.0,45.0,30.16,West,259,4.0,4.0,96,0.00,,,0.00,,2013-03-11 15:42:00,
2013-03-11 11:53:00,46.0,45.0,30.16,WSW,254,4.0,4.0,95,0.00,,,0.00,,2013-03-11 15:53:00,
2013-03-11 12:02:00,46.0,45.0,30.16,NW,312,4.0,4.0,95,0.00,,,0.00,,2013-03-11 16:02:00,
2013-03-11 12:13:00,46.0,45.0,30.16,NW,312,4.0,4.0,95,0.00,,,0.00,,2013-03-11 16:13:00,
2013-03-11 12:22:00,47.0,46.0,30.16,West,265,2.0,2.0,95,0.00,,,0.00,,2013-03-11 16:22:00,
2013-03-11 12:32:00,48.0,46.0,30.16,WSW,252,3.0,3.0,94,0.00,,,0.00,,2013-03-11 16:32:00,
2013-03-11 12:43:00,48.0,46.0,30.16,WSW,252,3.0,3.0,94,0.00,,,0.00,,2013-03-11 16:43:00,
2013-03-11 12:52:00,49.0,46.0,30.16,WSW,258,3.0,3.0,91,0.00,,,0.00,,2013-03-11 16:52:00,
2013-03-11 13:02:00,50.0,47.0,30.16,West,265,3.0,3.0,89,0.00,,,0.00,,2013-03-11 17:02:00,
2013-03-11 13:15:00,50.0,47.0,30.16,West,265,3.0,3.0,89,0.00,,,0.00,,2013-03-11 17:15:00,
2013-03-11 13:27:00,51.0,47.0,30.15,West,262,3.0,3.0,87,0.00,,,0.00,,2013-03-11 17:27:00,
2013-03-11 13:36:00,51.0,47.0,30.14,South,186,3.0,3.0,86,0.00,,,0.00,,2013-03-11 17:36:00,
2013-03-11 13:42:00,51.0,47.0,30.14,South,186,3.0,3.0,86,0.00,,,0.00,,2013-03-11 17:42:00,
2013-03-11 13:53:00,52.0,48.0,30.13,WSW,246,2.0,2.0,85,0.00,,,0.00,,2013-03-11 17:53:00,
2013-03-11 14:02:00,54.0,49.0,30.12,WSW,250,4.0,4.0,83,0.00,,,0.00,,2013-03-11 18:02:00,
2013-03-11 14:12:00,54.0,49.0,30.12,WSW,250,4.0,4.0,83,0.00,,,0.00,,2013-03-11 18:12:00,
2013-03-11 14:23:00,54.0,48.0,30.11,NW,325,2.0,2.0,81,0.00,,,0.00,,2013-03-11 18:23:00,
2013-03-11 14:32:00,55.0,48.0,30.10,WSW,250,2.0,2.0,78,0.00,,,0.00,,2013-03-11 18:32:00,
2013-03-11 14:42:00,55.0,48.0,30.10,WSW,250,2.0,2.0,78,0.00,,,0.00,,2013-03-11 18:42:00,
2013-03-11 14:53:00,55.0,49.0,30.10,West,277,2.0,2.0,79,0.00,,,0.00,,2013-03-11 18:53:00,
2013-03-11 15:02:00,55.0,49.0,30.09,WSW,252,2.0,2.0,79,0.00,,,0.00,,2013-03-11 19:02:00,
2013-03-11 15:12:00,55.0,49.0,30.09,WSW,252,2.0,2.0,79,0.00,,,0.00,,2013-03-11 19:12:00,
2013-03-11 15:23:00,55.0,49.0,30.08,WNW,286,1.0,1.0,79,0.00,,,0.00,,2013-03-11 19:23:00,
2013-03-11 15:33:00,55.0,48.0,30.08,WSW,238,3.0,3.0,78,0.00,,,0.00,,2013-03-11 19:33:00,
2013-03-11 15:42:00,55.0,48.0,30.08,WSW,238,3.0,3.0,78,0.00,,,0.00,,2013-03-11 19:42:00,
2013-03-11 15:53:00,54.0,48.0,30.08,West,262,2.0,2.0,80,0.00,,,0.00,,2013-03-11 19:53:00,
2013-03-11 16:02:00,54.0,49.0,30.07,SW,234,5.0,5.0,82,0.00,,,0.00,,2013-03-11 20:02:00,
2013-03-11 16:12:00,54.0,49.0,30.07,SW,234,5.0,5.0,82,0.00,,,0.00,,2013-03-11 20:12:00,
2013-03-11 16:22:00,55.0,49.0,30.06,West,268,2.0,2.0,80,0.00,,,0.00,,2013-03-11 20:22:00,
2013-03-11 16:32:00,55.0,49.0,30.05,WSW,250,2.0,2.0,81,0.00,,,0.00,,2013-03-11 20:32:00,
2013-03-11 16:43:00,55.0,49.0,30.05,WSW,250,2.0,2.0,81,0.00,,,0.00,,2013-03-11 20:43:00,
2013-03-11 16:53:00,56.0,50.0,30.05,ENE,74,3.0,3.0,81,0.00,,,0.00,,2013-03-11 20:53:00,
2013-03-11 17:03:00,57.0,50.0,30.04,ESE,115,1.0,1.0,78,0.00,,,0.00,,2013-03-11 21:03:00,
2013-03-11 17:13:00,57.0,50.0,30.04,ESE,115,1.0,1.0,78,0.00,,,0.00,,2013-03-11 21:13:00,
2013-03-11 17:22:00,57.0,50.0,30.04,NW,314,7.0,7.0,78,0.00,,,0.00,,2013-03-11 21:22:00,
2013-03-11 17:32:00,57.0,50.0,30.03,East,96,2.0,2.0,77,0.00,,,0.00,,2013-03-11 21:32:00,
2013-03-11 17:44:00,57.0,50.0,30.03,East,96,2.0,2.0,77,0.00,,,0.00,,2013-03-11 21:44:00,
2013-03-11 17:53:00,56.0,49.0,30.02,NNW,344,2.0,2.0,78,0.00,,,0.00,,2013-03-11 21:53:00,
2013-03-11 18:03:00,56.0,49.0,30.02,SW,219,2.0,2.0,78,0.00,,,0.00,,2013-03-11 22:03:00,
2013-03-11 18:12:00,56.0,49.0,30.02,SW,219,2.0,2.0,78,0.00,,,0.00,,2013-03-11 22:12:00,
2013-03-11 18:22:00,56.0,50.0,30.02,West,259,5.0,5.0,79,0.00,,,0.00,,2013-03-11 22:22:00,
2013-03-11 18:32:00,56.0,49.0,30.02,NW,325,5.0,5.0,78,0.00,,,0.00,,2013-03-11 22:32:00,
2013-03-11 18:43:00,56.0,49.0,30.02,NW,325,5.0,5.0,78,0.00,,,0.00,,2013-03-11 22:43:00,
2013-03-11 18:53:00,56.0,49.0,30.02,WNW,298,5.0,5.0,78,0.00,,,0.00,,2013-03-11 22:53:00,
2013-03-11 19:03:00,56.0,49.0,30.02,West,278,6.0,6.0,78,0.00,,,0.00,,2013-03-11 23:03:00,
2013-03-11 19:12:00,56.0,49.0,30.02,West,278,6.0,6.0,78,0.00,,,0.00,,2013-03-11 23:12:00,
2013-03-11 19:22:00,55.0,49.0,30.02,East,88,6.0,6.0,79,0.00,,,0.00,,2013-03-11 23:22:00,
2013-03-11 19:32:00,55.0,49.0,30.02,ENE,59,7.0,7.0,80,0.00,,,0.00,,2013-03-11 23:32:00,
2013-03-11 19:43:00,55.0,49.0,30.02,ENE,59,7.0,7.0,80,0.00,,,0.00,,2013-03-11 23:43:00,
2013-03-11 19:54:00,55.0,49.0,30.02,WNW,296,5.0,5.0,81,0.00,,,0.00,,2013-03-11 23:54:00,
2013-03-11 20:02:00,55.0,49.0,30.00,NW,304,5.0,5.0,81,0.00,,,0.00,,2013-03-12 00:02:00,
2013-03-11 20:12:00,55.0,49.0,30.00,NW,304,5.0,5.0,81,0.00,,,0.00,,2013-03-12 00:12:00,
2013-03-11 20:23:00,55.0,49.0,30.00,NNE,19,5.0,5.0,80,0.00,,,0.00,,2013-03-12 00:23:00,
2013-03-11 20:33:00,54.0,48.0,29.99,NE,51,7.0,7.0,80,0.00,,,0.00,,2013-03-12 00:33:00,
2013-03-11 20:42:00,54.0,48.0,29.99,NE,51,7.0,7.0,80,0.00,,,0.00,,2013-03-12 00:42:00,
2013-03-11 20:54:00,55.0,49.0,29.99,West,259,7.0,7.0,79,0.00,,,0.00,,2013-03-12 00:54:00,
2013-03-11 21:02:00,54.0,48.0,30.00,ENE,74,4.0,4.0,79,0.00,,,0.00,,2013-03-12 01:02:00,
2013-03-11 21:12:00,54.0,48.0,30.00,ENE,74,4.0,4.0,79,0.00,,,0.00,,2013-03-12 01:12:00,
2013-03-11 21:22:00,54.0,48.0,30.01,NW,313,4.0,4.0,79,0.00,,,0.00,,2013-03-12 01:22:00,
2013-03-11 21:33:00,55.0,48.0,30.00,WNW,286,6.0,6.0,78,0.00,,,0.00,,2013-03-12 01:33:00,
2013-03-11 21:42:00,55.0,48.0,30.00,WNW,286,6.0,6.0,78,0.00,,,0.00,,2013-03-12 01:42:00,
2013-03-11 21:53:00,55.0,48.0,30.01,ESE,103,5.0,5.0,78,0.00,,,0.00,,2013-03-12 01:53:00,
2013-03-11 22:02:00,54.0,47.0,30.01,SW,223,5.0,5.0,78,0.00,,,0.00,,2013-03-12 02:02:00,
2013-03-11 22:12:00,54.0,47.0,30.01,SW,223,5.0,5.0,78,0.00,,,0.00,,2013-03-12 02:12:00,
2013-03-11 22:22:00,54.0,47.0,30.01,NNE,30,3.0,3.0,78,0.00,,,0.00,,2013-03-12 02:22:00,
2013-03-11 22:32:00,54.0,47.0,30.02,NW,325,6.0,6.0,78,0.00,,,0.00,,2013-03-12 02:32:00,
2013-03-11 22:42:00,54.0,47.0,30.02,NW,325,6.0,6.0,78,0.00,,,0.00,,2013-03-12 02:42:00,
2013-03-11 22:52:00,54.0,48.0,30.01,North,360,2.0,2.0,79,0.00,,,0.00,,2013-03-12 02:52:00,
2013-03-11 23:02:00,54.0,48.0,30.01,WNW,302,5.0,5.0,79,0.00,,,0.00,,2013-03-12 03:02:00,
2013-03-11 23:12:00,54.0,48.0,30.01,WNW,302,5.0,5.0,79,0.00,,,0.00,,2013-03-12 03:12:00,
2013-03-11 23:22:00,54.0,48.0,30.01,NNW,336,5.0,5.0,79,0.00,,,0.00,,2013-03-12 03:22:00,
2013-03-11 23:32:00,54.0,48.0,30.01,WNW,298,5.0,5.0,79,0.00,,,0.00,,2013-03-12 03:32:00,
2013-03-11 23:42:00,54.0,48.0,30.01,WNW,298,5.0,5.0,79,0.00,,,0.00,,2013-03-12 03:42:00,
2013-03-11 23:53:00,54.0,48.0,29.99,North,11,3.0,3.0,79,0.00,,,0.00,,2013-03-12 03:53:00,